Time,TemperatureF,DewpointF,PressureIn,WindDirection,WindDirectionDegrees,WindSpeedMPH,WindSpeedGustMPH,Humidity,HourlyPrecipIn,Conditions,Clouds,dailyrainin,SoftwareType,DateUTC
2013-08-24 00:03:00,59.0,48.8,29.68,South,180,0.0,-999.0,69,-99.99,,,0.00,Acu-Link.com,2013-08-24 07:03:00,
2013-08-24 00:18:00,57.2,47.9,29.69,East,90,0.0,-999.0,71,-99.99,,,0.00,Acu-Link.com,2013-08-24 07:18:00,
2013-08-24 00:33:00,57.2,48.3,29.69,ESE,112,0.0,-999.0,72,-99.99,,,0.00,Acu-Link.com,2013-08-24 07:33:00,
2013-08-24 00:48:00,55.4,46.9,29.69,ESE,112,0.0,-999.0,73,-99.99,,,0.00,Acu-Link.com,2013-08-24 07:48:00,
2013-08-24 01:03:00,55.4,47.3,29.70,ENE,67,0.0,-999.0,74,-99.99,,,0.00,Acu-Link.com,2013-08-24 08:03:00,
2013-08-24 01:19:00,55.4,47.3,29.70,ESE,112,0.0,-999.0,74,-99.99,,,0.00,Acu-Link.com,2013-08-24 08:19:00,
2013-08-24 01:34:00,55.4,47.6,29.71,NE,45,0.0,-999.0,75,-99.99,,,0.00,Acu-Link.com,2013-08-24 08:34:00,
2013-08-24 01:49:00,55.4,47.6,29.71,East,90,0.0,-999.0,75,-99.99,,,0.00,Acu-Link.com,2013-08-24 08:49:00,
2013-08-24 02:04:00,55.4,48.0,29.71,North,0,0.0,-999.0,76,-99.99,,,0.00,Acu-Link.com,2013-08-24 09:04:00,
2013-08-24 02:19:00,55.4,48.0,29.72,NE,45,0.0,-999.0,76,-99.99,,,0.00,Acu-Link.com,2013-08-24 09:19:00,
2013-08-24 02:34:00,55.4,49.0,29.72,ESE,112,0.0,-999.0,79,-99.99,,,0.00,Acu-Link.com,2013-08-24 09:34:00,
2013-08-24 02:49:00,53.6,47.2,29.72,East,90,0.0,-999.0,79,-99.99,,,0.00,Acu-Link.com,2013-08-24 09:49:00,
2013-08-24 03:05:00,53.6,47.6,29.71,ENE,67,0.0,-999.0,80,-99.99,,,0.00,Acu-Link.com,2013-08-24 10:05:00,
2013-08-24 03:20:00,53.6,47.2,29.73,SSW,202,0.0,-999.0,79,-99.99,,,0.00,Acu-Link.com,2013-08-24 10:20:00,
2013-08-24 03:35:00,53.6,47.6,29.72,East,90,0.0,-999.0,80,-99.99,,,0.00,Acu-Link.com,2013-08-24 10:35:00,
2013-08-24 03:50:00,53.6,47.2,29.72,ESE,112,0.0,-999.0,79,-99.99,,,0.00,Acu-Link.com,2013-08-24 10:50:00,
2013-08-24 04:05:00,53.6,46.9,29.72,NE,45,0.0,-999.0,78,-99.99,,,0.00,Acu-Link.com,2013-08-24 11:05:00,
2013-08-24 04:20:00,53.6,46.9,29.72,ESE,112,0.0,-999.0,78,-99.99,,,0.00,Acu-Link.com,2013-08-24 11:20:00,
2013-08-24 04:35:00,53.6,46.6,29.73,SE,135,0.0,-999.0,77,-99.99,,,0.00,Acu-Link.com,2013-08-24 11:35:00,
2013-08-24 04:50:00,53.6,46.6,29.73,SSW,202,0.0,-999.0,77,-99.99,,,0.00,Acu-Link.com,2013-08-24 11:50:00,
2013-08-24 05:05:00,53.6,46.2,29.73,ENE,67,0.0,-999.0,76,-99.99,,,0.00,Acu-Link.com,2013-08-24 12:05:00,
2013-08-24 05:20:00,51.8,44.5,29.72,ESE,112,0.0,-999.0,76,-99.99,,,0.00,Acu-Link.com,2013-08-24 12:20:00,
2013-08-24 05:35:00,51.8,44.1,29.72,ESE,112,0.0,-999.0,75,-99.99,,,0.00,Acu-Link.com,2013-08-24 12:35:00,
2013-08-24 05:50:00,51.8,44.5,29.72,ESE,112,0.0,-999.0,76,-99.99,,,0.00,Acu-Link.com,2013-08-24 12:50:00,
2013-08-24 06:05:00,51.8,44.5,29.72,East,90,0.0,-999.0,76,-99.99,,,0.00,Acu-Link.com,2013-08-24 13:05:00,
2013-08-24 06:20:00,51.8,43.8,29.72,ESE,112,0.0,-999.0,74,-99.99,,,0.00,Acu-Link.com,2013-08-24 13:20:00,
2013-08-24 06:36:00,51.8,43.8,29.72,East,90,0.0,-999.0,74,-99.99,,,0.00,Acu-Link.com,2013-08-24 13:36:00,
2013-08-24 06:51:00,53.6,45.5,29.73,ESE,112,0.0,-999.0,74,-99.99,,,0.00,Acu-Link.com,2013-08-24 13:51:00,
2013-08-24 07:06:00,53.6,45.2,29.73,NE,45,0.0,-999.0,73,-99.99,,,0.00,Acu-Link.com,2013-08-24 14:06:00,
2013-08-24 07:22:00,53.6,45.2,29.73,East,90,2.0,-999.0,73,-99.99,,,0.00,Acu-Link.com,2013-08-24 14:22:00,
2013-08-24 07:37:00,53.6,45.2,29.73,ESE,112,0.0,-999.0,73,-99.99,,,0.00,Acu-Link.com,2013-08-24 14:37:00,
2013-08-24 07:52:00,55.4,45.8,29.73,ESE,112,2.0,-999.0,70,-99.99,,,0.00,Acu-Link.com,2013-08-24 14:52:00,
2013-08-24 08:07:00,57.2,46.7,29.74,ESE,112,2.0,-999.0,68,-99.99,,,0.00,Acu-Link.com,2013-08-24 15:07:00,
2013-08-24 08:22:00,57.2,45.9,29.74,South,180,1.6,-999.0,66,-99.99,,,0.00,Acu-Link.com,2013-08-24 15:22:00,
2013-08-24 08:37:00,59.0,47.7,29.74,East,90,1.6,-999.0,66,-99.99,,,0.00,Acu-Link.com,2013-08-24 15:37:00,
2013-08-24 08:52:00,59.0,47.3,29.74,East,90,2.7,-999.0,65,-99.99,,,0.00,Acu-Link.com,2013-08-24 15:52:00,
2013-08-24 09:07:00,60.8,47.7,29.74,West,270,4.7,-999.0,62,-99.99,,,0.00,Acu-Link.com,2013-08-24 16:07:00,
2013-08-24 09:23:00,60.8,47.3,29.74,SE,135,1.6,-999.0,61,-99.99,,,0.00,Acu-Link.com,2013-08-24 16:23:00,
2013-08-24 09:38:00,60.8,47.7,29.73,SSE,157,2.0,-999.0,62,-99.99,,,0.00,Acu-Link.com,2013-08-24 16:38:00,
2013-08-24 09:53:00,62.6,48.5,29.73,ESE,112,2.0,-999.0,60,-99.99,,,0.00,Acu-Link.com,2013-08-24 16:53:00,
2013-08-24 10:08:00,62.6,48.5,29.73,South,180,2.0,-999.0,60,-99.99,,,0.00,Acu-Link.com,2013-08-24 17:08:00,
2013-08-24 10:23:00,62.6,48.1,29.73,SSE,157,1.6,-999.0,59,-99.99,,,0.00,Acu-Link.com,2013-08-24 17:23:00,
2013-08-24 10:38:00,62.6,47.6,29.73,NE,45,2.7,-999.0,58,-99.99,,,0.00,Acu-Link.com,2013-08-24 17:38:00,
2013-08-24 10:53:00,64.4,48.8,29.73,SSE,157,2.7,-999.0,57,-99.99,,,0.00,Acu-Link.com,2013-08-24 17:53:00,
2013-08-24 11:09:00,64.4,47.9,29.73,East,90,1.6,-999.0,55,-99.99,,,0.00,Acu-Link.com,2013-08-24 18:09:00,
2013-08-24 11:24:00,64.4,47.9,29.73,NW,315,2.0,-999.0,55,-99.99,,,0.00,Acu-Link.com,2013-08-24 18:24:00,
2013-08-24 11:39:00,68.0,49.2,29.72,ESE,112,1.6,-999.0,51,-99.99,,,0.00,Acu-Link.com,2013-08-24 18:39:00,
2013-08-24 11:54:00,68.0,49.2,29.71,ESE,112,2.7,-999.0,51,-99.99,,,0.00,Acu-Link.com,2013-08-24 18:54:00,
2013-08-24 12:09:00,68.0,48.1,29.71,ESE,112,3.1,-999.0,49,-99.99,,,0.00,Acu-Link.com,2013-08-24 19:09:00,
2013-08-24 12:24:00,68.0,48.7,29.70,South,180,1.6,-999.0,50,-99.99,,,0.00,Acu-Link.com,2013-08-24 19:24:00,
2013-08-24 12:39:00,68.0,47.6,29.70,ESE,112,2.7,-999.0,48,-99.99,,,0.00,Acu-Link.com,2013-08-24 19:39:00,
2013-08-24 12:54:00,68.0,47.6,29.70,SE,135,2.0,-999.0,48,-99.99,,,0.00,Acu-Link.com,2013-08-24 19:54:00,
2013-08-24 13:09:00,68.0,47.0,29.70,SE,135,2.7,-999.0,47,-99.99,,,0.00,Acu-Link.com,2013-08-24 20:09:00,
2013-08-24 13:24:00,68.0,48.7,29.70,WSW,247,3.1,-999.0,50,-99.99,,,0.00,Acu-Link.com,2013-08-24 20:24:00,
2013-08-24 13:40:00,68.0,47.6,29.70,North,0,2.0,-999.0,48,-99.99,,,0.00,Acu-Link.com,2013-08-24 20:40:00,
2013-08-24 13:55:00,64.4,49.3,29.70,NNW,337,2.0,-999.0,58,-99.99,,,0.00,Acu-Link.com,2013-08-24 20:55:00,
2013-08-24 14:10:00,64.4,49.8,29.70,NNE,22,2.7,-999.0,59,-99.99,,,0.00,Acu-Link.com,2013-08-24 21:10:00,
2013-08-24 14:25:00,64.4,50.2,29.70,NE,45,2.7,-999.0,60,-99.99,,,0.00,Acu-Link.com,2013-08-24 21:25:00,
2013-08-24 14:40:00,64.4,51.5,29.70,West,270,2.7,-999.0,63,-99.99,,,0.00,Acu-Link.com,2013-08-24 21:40:00,
2013-08-24 14:55:00,66.2,52.3,29.69,NE,45,1.6,-999.0,61,-99.99,,,0.00,Acu-Link.com,2013-08-24 21:55:00,
2013-08-24 15:10:00,68.0,52.7,29.69,NNW,337,2.0,-999.0,58,-99.99,,,0.00,Acu-Link.com,2013-08-24 22:10:00,
2013-08-24 15:26:00,69.8,51.4,29.68,NW,315,1.6,-999.0,52,-99.99,,,0.00,Acu-Link.com,2013-08-24 22:26:00,
2013-08-24 15:41:00,71.6,48.5,29.67,West,270,3.1,-999.0,44,-99.99,,,0.00,Acu-Link.com,2013-08-24 22:41:00,
2013-08-24 15:56:00,71.6,49.7,29.67,South,180,0.0,-999.0,46,-99.99,,,0.00,Acu-Link.com,2013-08-24 22:56:00,
2013-08-24 16:11:00,73.4,46.9,29.66,South,180,2.0,-999.0,39,-99.99,,,0.00,Acu-Link.com,2013-08-24 23:11:00,
2013-08-24 16:26:00,73.4,45.5,29.66,NE,45,1.1,-999.0,37,-99.99,,,0.00,Acu-Link.com,2013-08-24 23:26:00,
2013-08-24 16:41:00,71.6,44.6,29.66,SSE,157,3.6,-999.0,38,-99.99,,,0.00,Acu-Link.com,2013-08-24 23:41:00,
2013-08-24 16:56:00,71.6,44.6,29.66,South,180,3.6,-999.0,38,-99.99,,,0.00,Acu-Link.com,2013-08-24 23:56:00,
2013-08-24 17:11:00,71.6,43.9,29.66,SSW,202,4.0,-999.0,37,-99.99,,,0.00,Acu-Link.com,2013-08-25 00:11:00,
2013-08-24 17:27:00,71.6,45.3,29.66,West,270,3.1,-999.0,39,-99.99,,,0.00,Acu-Link.com,2013-08-25 00:27:00,
2013-08-24 17:42:00,71.6,42.5,29.66,SSW,202,2.0,-999.0,35,-99.99,,,0.00,Acu-Link.com,2013-08-25 00:42:00,
2013-08-24 17:57:00,73.4,40.9,29.64,South,180,2.0,-999.0,31,-99.99,,,0.00,Acu-Link.com,2013-08-25 00:57:00,
2013-08-24 18:12:00,71.6,41.7,29.64,West,270,2.7,-999.0,34,-99.99,,,0.00,Acu-Link.com,2013-08-25 01:12:00,
2013-08-24 18:27:00,69.8,41.6,29.65,West,270,0.0,-999.0,36,-99.99,,,0.00,Acu-Link.com,2013-08-25 01:27:00,
2013-08-24 18:42:00,68.0,41.4,29.65,WNW,292,2.0,-999.0,38,-99.99,,,0.00,Acu-Link.com,2013-08-25 01:42:00,
2013-08-24 18:57:00,68.0,42.8,29.65,ESE,112,1.1,-999.0,40,-99.99,,,0.00,Acu-Link.com,2013-08-25 01:57:00,
2013-08-24 19:12:00,66.2,42.4,29.64,SSW,202,0.0,-999.0,42,-99.99,,,0.00,Acu-Link.com,2013-08-25 02:12:00,
2013-08-24 19:27:00,64.4,41.4,29.65,East,90,0.0,-999.0,43,-99.99,,,0.00,Acu-Link.com,2013-08-25 02:27:00,
2013-08-24 19:43:00,64.4,42.0,29.65,ESE,112,0.0,-999.0,44,-99.99,,,0.00,Acu-Link.com,2013-08-25 02:43:00,
2013-08-24 19:58:00,62.6,42.1,29.66,ESE,112,0.0,-999.0,47,-99.99,,,0.00,Acu-Link.com,2013-08-25 02:58:00,
2013-08-24 20:13:00,62.6,42.1,29.66,SW,225,0.0,-999.0,47,-99.99,,,0.00,Acu-Link.com,2013-08-25 03:13:00,
2013-08-24 20:28:00,60.8,41.0,29.67,South,180,0.0,-999.0,48,-99.99,,,0.00,Acu-Link.com,2013-08-25 03:28:00,
2013-08-24 20:43:00,60.8,41.0,29.69,SSE,157,0.0,-999.0,48,-99.99,,,0.00,Acu-Link.com,2013-08-25 03:43:00,
2013-08-24 20:58:00,60.8,41.5,29.69,SSE,157,0.0,-999.0,49,-99.99,,,0.00,Acu-Link.com,2013-08-25 03:58:00,
2013-08-24 21:13:00,60.8,42.0,29.70,West,270,0.0,-999.0,50,-99.99,,,0.00,Acu-Link.com,2013-08-25 04:13:00,
2013-08-24 21:28:00,60.8,42.0,29.70,SW,225,0.0,-999.0,50,-99.99,,,0.00,Acu-Link.com,2013-08-25 04:28:00,
2013-08-24 21:43:00,60.8,42.0,29.70,West,270,0.0,-999.0,50,-99.99,,,0.00,Acu-Link.com,2013-08-25 04:43:00,
2013-08-24 21:58:00,60.8,42.0,29.71,SW,225,0.0,-999.0,50,-99.99,,,0.00,Acu-Link.com,2013-08-25 04:58:00,
2013-08-24 22:13:00,60.8,42.6,29.71,WSW,247,0.0,-999.0,51,-99.99,,,0.00,Acu-Link.com,2013-08-25 05:13:00,
2013-08-24 22:28:00,59.0,40.9,29.71,SW,225,0.0,-999.0,51,-99.99,,,0.00,Acu-Link.com,2013-08-25 05:28:00,
2013-08-24 22:43:00,59.0,40.9,29.72,South,180,0.0,-999.0,51,-99.99,,,0.00,Acu-Link.com,2013-08-25 05:43:00,
2013-08-24 22:58:00,59.0,41.4,29.73,East,90,0.0,-999.0,52,-99.99,,,0.00,Acu-Link.com,2013-08-25 05:58:00,
2013-08-24 23:13:00,57.2,40.7,29.73,SSE,157,0.0,-999.0,54,-99.99,,,0.00,Acu-Link.com,2013-08-25 06:13:00,
2013-08-24 23:28:00,55.4,40.0,29.73,ENE,67,0.0,-999.0,56,-99.99,,,0.00,Acu-Link.com,2013-08-25 06:28:00,
2013-08-24 23:43:00,55.4,41.3,29.74,ESE,112,0.0,-999.0,59,-99.99,,,0.00,Acu-Link.com,2013-08-25 06:43:00,
2013-08-24 23:58:00,55.4,41.3,29.74,NNW,337,0.0,-999.0,59,-99.99,,,0.00,Acu-Link.com,2013-08-25 06:58:00,